Cheyenne, WY

6:47 AM MDT on May 27, 2017 (GMT -0600)
Cheyenne

Weather History for KCYS - April, 2013

Change the Weather History Date:

Tuesday, April 9, 2013

  Actual Average Record
Temperature  
Mean Temperature 9 °F 41 °F  
Max Temperature 12 °F 53 °F 75 °F (1977)
Min Temperature 6 °F 29 °F 6 °F (2013)
Degree Days  
Heating Degree Days 56 24  
Month to date heating degree days 227 225  
Since 1 July heating degree days 6090 6145  
Cooling Degree Days 0 0  
Month to date cooling degree days 0 0  
Year to date cooling degree days 0 0  
Moisture  
Dew Point 3 °F    
Average Humidity 79    
Maximum Humidity 84    
Minimum Humidity 73    
Precipitation  
Precipitation 0.22 in 0.05 in 1.09 in (1901)
Month to date precipitation 0.47 0.41  
Year to date precipitation 1.98 2.26  
Snow  
Snow 6.50 in 0.40 in 9.00 in (1901)
Month to date snowfall 9.0 3.6  
Since 1 July snowfall 54.2 51.4  
Snow Depth 9.00 in    
Sea Level Pressure  
Sea Level Pressure 30.06 in    
Wind  
Wind Speed 20 mph (North)    
Max Wind Speed 31 mph    
Max Gust Speed 43 mph    
Visibility 2 miles    
Events Fog , Snow    
T = Trace of Precipitation, MM = Missing Value Source: NWS Daily Summary

Daily Weather History Graph

Daily Weather History Graph

Search for Another Location

Airport or City:

Trip Planner

Search our weather history database for the weather conditions in past years. The results will help you decide how hot, cold, wet, or windy it might be!

Date:

Astronomy

Apr. 09, 2013 Rise Set
Actual Time 6:28 AM MDT 7:33 PM MDT
Civil Twilight 6:00 AM MDT 8:01 PM MDT
Nautical Twilight 5:27 AM MDT 8:35 PM MDT
Astronomical Twilight 4:51 AM MDT 9:10 PM MDT
Moon 5:53 AM MDT (4/9) 7:11 PM MDT (4/9)
Length of Visible Light 14h 00m
Length of Day
13h 04m
Waning Crescent, 0% of the Moon is Illuminated
Apr 9
Waning Crescent
Apr 10
New
Apr 18
First Quarter
Apr 25
Full
May 2
Last Quarter

Hourly Weather History & Observations

Time (MDT) Temp. Windchill Dew Point Humidity Pressure Visibility Wind Dir Wind Speed Gust Speed Precip Events Conditions
12:18 AM 12.2 °F -6.7 °F 8.6 °F 85% 29.85 in 0.8 mi NNW 21.9 mph 32.2 mph 0.01 in   Mist
12:31 AM 12.2 °F -7.1 °F 8.6 °F 85% 29.83 in 0.8 mi North 23.0 mph 39.1 mph 0.02 in   Mist
12:49 AM 12.2 °F -6.7 °F 8.6 °F 85% 29.85 in 1.0 mi NNW 21.9 mph 33.4 mph 0.02 in   Haze
12:53 AM 12.0 °F -6.0 °F 8.1 °F 84% 29.88 in 1.2 mi NNW 19.6 mph 35.7 mph 0.02 in   Overcast
1:06 AM 12.2 °F -7.1 °F 8.6 °F 85% 29.83 in 2.0 mi North 23.0 mph 36.8 mph N/A   Overcast
1:31 AM 12.2 °F -6.3 °F 8.6 °F 85% 29.87 in 1.5 mi NNW 20.7 mph 31.1 mph N/A   Overcast
1:44 AM 12.2 °F -7.1 °F 6.8 °F 79% 29.86 in 2.0 mi North 23.0 mph 34.5 mph N/A   Haze
1:51 AM 12.2 °F -7.5 °F 6.8 °F 79% 29.85 in 3.0 mi NNW 24.2 mph 34.5 mph N/A   Haze
1:53 AM 12.0 °F -6.5 °F 7.0 °F 80% 29.91 in 3.0 mi North 20.7 mph 34.5 mph N/A   Haze
2:43 AM 10.4 °F -10.7 °F 6.8 °F 85% 29.88 in 2.5 mi North 26.5 mph 34.5 mph N/A   Overcast
2:53 AM 10.9 °F -7.5 °F 7.0 °F 84% 30.00 in 2.0 mi North 19.6 mph 33.4 mph N/A   Overcast
3:05 AM 10.4 °F -10.3 °F 6.8 °F 85% 29.90 in 2.0 mi North 25.3 mph 33.4 mph N/A   Overcast
3:28 AM 10.4 °F -8.2 °F 6.8 °F 85% 29.90 in 2.5 mi North 19.6 mph 32.2 mph 0.01 in   Haze
3:53 AM 10.9 °F -7.9 °F 6.1 °F 81% 30.01 in 2.5 mi North 20.7 mph 42.6 mph 0.01 in   Haze
4:00 AM 10.4 °F -8.2 °F 6.8 °F 85% 29.88 in 3.0 mi North 19.6 mph 34.5 mph N/A   Haze
4:21 AM 10.4 °F -9.9 °F 5.0 °F 79% 29.87 in 3.0 mi North 24.2 mph 39.1 mph N/A   Haze
4:36 AM 10.4 °F -6.6 °F 6.8 °F 85% 29.92 in 3.0 mi North 16.1 mph 35.7 mph N/A   Overcast
4:45 AM 10.4 °F -4.8 °F 5.0 °F 79% 29.92 in 4.0 mi North 12.7 mph 29.9 mph N/A   Haze
4:53 AM 10.0 °F -9.5 °F 6.1 °F 84% 30.08 in 3.0 mi North 21.9 mph 28.8 mph N/A   Overcast
4:58 AM 10.4 °F -9.1 °F 5.0 °F 79% 29.92 in 1.8 mi North 21.9 mph 32.2 mph N/A   Haze
5:07 AM 10.4 °F -8.6 °F 6.8 °F 85% 29.92 in 0.8 mi NNW 20.7 mph 32.2 mph N/A   Mist
5:19 AM 10.4 °F -5.4 °F 6.8 °F 85% 29.95 in 0.5 mi North 13.8 mph 33.4 mph 0.01 in Fog Light Freezing Fog
5:34 AM 8.6 °F -11.9 °F 5.0 °F 85% 29.92 in 0.5 mi North 23.0 mph 34.5 mph 0.03 in Fog Light Freezing Fog
5:53 AM 9.0 °F -11.8 °F 5.0 °F 84% 30.14 in 0.5 mi North 24.2 mph 32.2 mph 0.03 in Fog Light Freezing Fog
6:17 AM 8.6 °F -11.0 °F 3.2 °F 79% 29.92 in 0.5 mi North 20.7 mph 34.5 mph 0.01 in   Haze
6:36 AM 8.6 °F -11.0 °F 3.2 °F 79% 29.96 in 1.5 mi North 20.7 mph 32.2 mph 0.02 in   Haze
6:48 AM 8.6 °F -9.5 °F 3.2 °F 79% 29.96 in 2.0 mi North 17.3 mph 33.4 mph 0.02 in   Haze
6:53 AM 9.0 °F -10.0 °F 3.9 °F 80% 30.16 in 2.0 mi North 19.6 mph 28.8 mph 0.02 in   Haze
7:19 AM 8.6 °F -10.0 °F 3.2 °F 79% 29.95 in 1.5 mi NNW 18.4 mph 32.2 mph N/A   Haze
7:53 AM 8.1 °F -13.0 °F 3.0 °F 80% 30.22 in 1.0 mi North 24.2 mph 33.4 mph N/A   Haze
8:01 AM 8.6 °F -10.5 °F 3.2 °F 79% 29.98 in 1.2 mi North 19.6 mph 29.9 mph N/A   Haze
8:21 AM 8.6 °F -8.9 °F 3.2 °F 79% 30.00 in 1.5 mi North 16.1 mph 33.4 mph N/A   Haze
8:53 AM 8.1 °F -12.6 °F 3.0 °F 80% 30.25 in 1.0 mi North 23.0 mph 32.2 mph N/A   Haze
8:58 AM 8.6 °F -10.5 °F 3.2 °F 79% 30.01 in 0.8 mi North 19.6 mph 29.9 mph N/A   Haze
9:25 AM 8.6 °F -10.0 °F 3.2 °F 79% 29.98 in 0.5 mi North 18.4 mph 32.2 mph N/A   Haze
9:43 AM 8.6 °F -12.7 °F 1.4 °F 73% 29.98 in 0.5 mi North 25.3 mph 38.0 mph N/A   Haze
9:53 AM 8.1 °F -12.2 °F 1.9 °F 76% 30.25 in 0.8 mi North 21.9 mph 35.7 mph N/A   Haze
10:01 AM 8.6 °F -11.4 °F 1.4 °F 73% 30.01 in 1.5 mi North 21.9 mph 31.1 mph N/A   Haze
10:08 AM 8.6 °F -11.4 °F 1.4 °F 73% 30.01 in 1.5 mi North 21.9 mph 31.1 mph N/A   Haze
10:21 AM 8.6 °F -11.9 °F 1.4 °F 73% 30.01 in 1.2 mi North 23.0 mph 32.2 mph N/A   Haze
10:45 AM 8.6 °F -8.9 °F 1.4 °F 73% 30.00 in 2.0 mi North 16.1 mph 34.5 mph 0.01 in   Haze
10:53 AM 8.1 °F -13.0 °F 1.9 °F 76% 30.27 in 2.0 mi North 24.2 mph 34.5 mph 0.01 in   Haze
11:15 AM 8.6 °F -11.9 °F 1.4 °F 73% 30.02 in 1.5 mi North 23.0 mph 32.2 mph N/A   Haze
11:53 AM 8.1 °F -13.0 °F 1.9 °F 76% 30.27 in 0.8 mi NNW 24.2 mph 34.5 mph N/A   Haze
12:00 PM 8.6 °F -11.9 °F 3.2 °F 79% 29.99 in 0.8 mi North 23.0 mph 33.4 mph 0.01 in   Haze
12:20 PM 8.6 °F -11.4 °F 1.4 °F 73% 29.99 in 0.8 mi North 21.9 mph 33.4 mph 0.01 in   Haze
12:32 PM 8.6 °F -11.0 °F 1.4 °F 73% 30.01 in 0.5 mi North 20.7 mph 34.5 mph 0.01 in   Haze
12:40 PM 8.6 °F -10.0 °F 1.4 °F 73% 30.01 in 0.2 mi North 18.4 mph 31.1 mph 0.01 in   Haze
12:53 PM 8.1 °F -13.8 °F 3.0 °F 80% 30.27 in 0.5 mi North 26.5 mph 34.5 mph 0.02 in   Haze
1:04 PM 8.6 °F -11.9 °F 3.2 °F 79% 29.99 in 0.2 mi North 23.0 mph 31.1 mph N/A   Haze
1:20 PM 6.8 °F -15.5 °F 3.2 °F 85% 29.98 in 0.1 mi North 26.5 mph 34.5 mph 0.02 in Snow Light Snow
1:53 PM 8.1 °F -11.2 °F 3.0 °F 80% 30.26 in 0.1 mi NNW 19.6 mph 32.2 mph 0.05 in Snow Light Snow
2:01 PM 8.6 °F -10.0 °F 3.2 °F 79% 30.01 in 0.1 mi NNW 18.4 mph 29.9 mph N/A Snow Light Snow
2:53 PM 8.1 °F -11.2 °F 3.0 °F 80% 30.29 in 0.1 mi North 19.6 mph 31.1 mph 0.02 in Snow Light Snow
3:22 PM 8.6 °F -10.0 °F 1.4 °F 73% 30.01 in 0.1 mi North 18.4 mph 28.8 mph 0.01 in Snow Light Snow
3:33 PM 8.6 °F -10.0 °F 1.4 °F 73% 30.01 in 0.5 mi North 18.4 mph 31.1 mph 0.02 in Snow Light Snow
3:53 PM 8.1 °F -12.6 °F 1.9 °F 76% 30.29 in 0.5 mi North 23.0 mph 32.2 mph 0.02 in Snow Light Snow
4:44 PM 8.6 °F -8.9 °F 1.4 °F 73% 30.03 in 1.0 mi NNW 16.1 mph 27.6 mph 0.01 in Snow Light Snow
4:53 PM 8.1 °F -9.0 °F 1.9 °F 76% 30.33 in 1.2 mi NNW 15.0 mph 27.6 mph 0.01 in Snow Light Snow
5:07 PM 8.6 °F -9.5 °F 1.4 °F 73% 30.05 in 1.8 mi North 17.3 mph 23.0 mph 0.00 in Snow Light Snow
5:30 PM 8.6 °F -10.5 °F 1.4 °F 73% 30.03 in 0.8 mi NNW 19.6 mph 31.1 mph 0.00 in Snow Light Snow
5:53 PM 7.0 °F -12.1 °F 1.0 °F 77% 30.33 in 0.8 mi North 18.4 mph 29.9 mph 0.00 in Snow Light Snow
6:13 PM 6.8 °F -12.4 °F 1.4 °F 79% 30.05 in 1.0 mi NNW 18.4 mph 26.5 mph 0.00 in Snow Light Snow
6:53 PM 6.1 °F -13.3 °F 1.0 °F 80% 30.38 in 1.0 mi North 18.4 mph 28.8 mph 0.00 in Snow Light Snow
7:27 PM 6.8 °F -11.8 °F 1.4 °F 79% 30.07 in 0.8 mi North 17.3 mph 26.5 mph 0.00 in Snow Light Snow
7:35 PM 6.8 °F -13.4 °F 1.4 °F 79% 30.07 in 1.0 mi North 20.7 mph 28.8 mph 0.00 in Snow Light Snow
7:53 PM 6.1 °F -13.3 °F 1.0 °F 80% 30.38 in 2.0 mi North 18.4 mph 26.5 mph 0.00 in Snow Light Snow
8:14 PM 6.8 °F -10.7 °F 1.4 °F 79% 30.08 in 2.5 mi North 15.0 mph 24.2 mph 0.00 in Snow Light Snow
8:53 PM 6.1 °F -11.6 °F 1.0 °F 80% 30.40 in 2.5 mi North 15.0 mph 21.9 mph 0.00 in Snow Blowing Snow
9:03 PM 6.8 °F -11.8 °F 1.4 °F 79% 30.10 in 2.5 mi North 17.3 mph 23.0 mph N/A Snow Blowing Snow
9:18 PM 6.8 °F -10.7 °F 1.4 °F 79% 30.10 in 2.5 mi North 15.0 mph 24.2 mph N/A Snow Blowing Snow
9:53 PM 7.0 °F -12.1 °F 1.0 °F 77% 30.40 in 2.0 mi North 18.4 mph 26.5 mph 0.00 in Snow Light Snow
10:02 PM 6.8 °F -10.7 °F 1.4 °F 79% 30.10 in 1.5 mi North 15.0 mph 26.5 mph 0.00 in Snow Light Snow
10:31 PM 6.8 °F -11.8 °F 1.4 °F 79% 30.09 in 2.0 mi North 17.3 mph 23.0 mph 0.01 in Snow Light Snow
10:53 PM 7.0 °F -12.1 °F 1.0 °F 77% 30.38 in 2.0 mi North 18.4 mph 24.2 mph 0.01 in Snow Light Snow
11:27 PM 6.8 °F -12.4 °F 1.4 °F 79% 30.07 in 3.0 mi North 18.4 mph 26.5 mph 0.00 in Snow Light Snow
11:35 PM 6.8 °F -12.4 °F 1.4 °F 79% 30.06 in 4.0 mi North 18.4 mph 31.1 mph 0.00 in Snow Light Snow
11:53 PM 6.1 °F -10.2 °F 1.0 °F 80% 30.38 in 7.0 mi NNW 12.7 mph 23.0 mph 0.00 in Snow Light Snow